• Join FlightAware (Why Join?)
  • Login
  • US Flag 
07:48AM EDT


 

Airport Tracker/Info


-or-


 

Live Flight TrackerFlight Track Log ✈ SKW5516 ✈ 13-Jun-2013 ✈ KDEN - KBOI

Flight Track Log - Related Links

Times and Time Zones

All times are in EDT time to prevent confusion due to time zone crossing. See the SKW5516 flight status page for this flight to view local times or setup timezone preferences in your user account.

Time Position Orientation Groundspeed Altitude Reporting Facility
EDT Latitude Longitude Course Direction KTS MPH feet Rate Location/Type
10:31AM 39.9167 -104.7167 270° West 187 215 6,900  Level Denver TRACON
10:32AM 39.9167 -104.7833 270° West 249 287 8,100 1,620 Climbing Denver TRACON
10:33AM 39.9386 -104.8786 287° West 272 313 10,000 1,140 Climbing Denver Center
10:34AM 39.9467 -104.9956 275° West 326 375 10,400 1,440 Climbing Denver Center
10:35AM 39.9625 -105.1247 279° West 335 386 13,000 1,980 Climbing Denver Center
10:36AM 39.9761 -105.2478 278° West 344 396 14,500 1,740 Climbing Denver Center
10:37AM 39.9842 -105.3811 275° West 346 398 16,700 2,040 Climbing Denver Center
10:38AM 39.9808 -105.5064 268° West 347 399 18,800 1,980 Climbing Denver Center
10:39AM 39.9778 -105.6322 268° West 351 404 20,900 1,920 Climbing Denver Center
10:40AM 39.9750 -105.7689 269° West 353 406 22,800 1,680 Climbing Denver Center
10:41AM 39.9731 -105.9050 269° West 362 417 24,400 1,500 Climbing Denver Center
10:43AM 39.9847 -106.1106 274° West 383 441 26,700 1,440 Climbing Salt Lake Center
10:43AM 39.9900 -106.1811 276° West 384 442 27,400 1,260 Climbing Denver Center
10:44AM 39.9975 -106.3247 274° West 396 456 28,700 1,080 Climbing Denver Center
10:45AM 40.0156 -106.4708 279° West 414 476 29,700 1,020 Climbing Denver Center
10:46AM 40.0811 -106.6342 298° West 436 502 30,900 960 Climbing Denver Center
10:47AM 40.1356 -106.7697 298° West 439 505 31,800 960 Climbing Denver Center
10:48AM 40.1989 -106.9278 298° West 440 506 33,000 1,020 Climbing Denver Center
10:49AM 40.2522 -107.0631 297° West 438 504 34,000 660 Climbing Denver Center
10:50AM 40.3167 -107.2256 298° West 449 517 34,400 840 Climbing Denver Center
10:51AM 40.3731 -107.3661 298° West 455 524 35,800 1,260 Climbing Denver Center
10:52AM 40.4356 -107.5267 297° West 446 513 37,100 1,020 Climbing Denver Center
10:53AM 40.4875 -107.6608 297° West 436 502 38,000 420 Climbing Denver Center
10:54AM 40.5489 -107.8192 297° West 436 502 38,000  Level Denver Center
10:55AM 40.6006 -107.9519 297° West 430 495 38,000  Level Denver Center
10:57AM 40.6569 -108.1000 297° West 412 474 38,000  Level Denver Center
10:57AM 40.6833 -108.1728 296° West 410 472 38,000  Level Salt Lake Center
10:58AM 40.7325 -108.3003 297° West 407 468 38,000  Level Salt Lake Center
10:59AM 40.7814 -108.4314 296° West 414 476 38,000  Level Salt Lake Center
11:00AM 40.8156 -108.5175 298° West 417 480 38,000  Level Denver Center
11:01AM 40.8667 -108.6544 296° West 432 497 38,000  Level Denver Center
11:01AM 40.8914 -108.7222 296° West 429 494 38,000  Level Salt Lake Center
11:02AM 40.9508 -108.8808 296° West 429 494 38,000  Level Salt Lake Center
11:03AM 41.0014 -109.0186 296° West 432 497 38,000  Level Salt Lake Center
11:04AM 41.0608 -109.1781 296° West 430 495 38,000  Level Salt Lake Center
11:05AM 41.1114 -109.3156 296° West 431 496 38,000  Level Salt Lake Center
11:06AM 41.1694 -109.4764 296° West 430 495 38,000  Level Salt Lake Center
11:07AM 41.2186 -109.6131 296° West 427 491 38,000  Level Salt Lake Center
11:08AM 41.2683 -109.7489 296° West 425 489 38,000  Level Salt Lake Center
11:09AM 41.3272 -109.9128 296° West 435 501 38,000  Level Salt Lake Center
11:10AM 41.3781 -110.0556 295° West 441 507 38,000  Level Salt Lake Center
11:12AM 41.4392 -110.2228 296° West 448 516 38,000  Level Salt Lake Center
11:13AM 41.4894 -110.3650 295° West 444 511 38,000  Level Salt Lake Center
11:14AM 41.5464 -110.5289 295° West 437 503 38,000  Level Salt Lake Center
11:15AM 41.5961 -110.6675 296° West 434 499 38,000  Level Salt Lake Center
11:16AM 41.6517 -110.8286 295° West 430 495 38,000  Level Salt Lake Center
11:17AM 41.7008 -110.9675 295° West 431 496 38,000  Level Salt Lake Center
11:18AM 41.7569 -111.1281 295° West 428 493 38,000  Level Salt Lake Center
11:19AM 41.8042 -111.2678 294° West 429 494 38,000  Level Salt Lake Center
11:20AM 41.8506 -111.4053 294° West 425 489 38,000  Level Salt Lake Center
11:21AM 41.9061 -111.5686 295° West 429 494 38,000  Level Salt Lake Center
11:22AM 41.9539 -111.7081 295° West 430 495 38,000  Level Salt Lake Center
11:23AM 42.0092 -111.8706 295° West 429 494 38,000  Level Salt Lake Center
11:24AM 42.0550 -112.0106 294° West 428 493 38,000  Level Salt Lake Center
11:25AM 42.1092 -112.1753 294° West 430 495 38,000  Level Salt Lake Center
11:26AM 42.1561 -112.3158 294° West 431 496 38,000  Level Salt Lake Center
11:27AM 42.2050 -112.4633 294° West 427 491 38,000  Level Salt Lake Center
11:28AM 42.2681 -112.6258 298° West 436 502 38,000  Level Salt Lake Center
11:29AM 42.3214 -112.7650 297° West 436 502 38,000  Level Salt Lake Center
11:30AM 42.3833 -112.9278 297° West 436 502 38,000  Level Salt Lake Center
11:31AM 42.4364 -113.0689 297° West 438 504 38,000  Level Salt Lake Center
11:32AM 42.4983 -113.2339 297° West 440 506 38,000  Level Salt Lake Center
11:33AM 42.5528 -113.3747 298° West 440 506 38,000  Level Salt Lake Center
11:34AM 42.6128 -113.5392 296° West 438 504 38,000  Level Salt Lake Center
11:35AM 42.6656 -113.6794 297° West 437 503 38,000  Level Salt Lake Center
11:36AM 42.7253 -113.8417 297° West 438 504 38,000  Level Salt Lake Center
11:37AM 42.7811 -113.9942 297° West 433 498 38,000 -600 Level Salt Lake Center
11:38AM 42.8333 -114.1369 297° West 435 501 36,800 -2,160 Descending Salt Lake Center
11:39AM 42.8892 -114.2908 296° West 437 503 33,600 -3,000 Descending Salt Lake Center
11:40AM 42.9389 -114.4344 295° West 426 490 30,700 -3,060 Descending Salt Lake Center
11:41AM 42.9967 -114.5953 296° West 422 486 27,400 -3,000 Descending Salt Lake Center
11:43AM 43.0464 -114.7339 296° West 423 487 24,500 -3,060 Descending Salt Lake Center
11:44AM 43.1025 -114.8897 296° West 411 473 21,100 -3,240 Descending Salt Lake Center
11:45AM 43.1528 -115.0314 296° West 401 461 17,900 -2,940 Descending Salt Lake Center
11:46AM 43.1967 -115.1572 296° West 386 444 15,100 -2,340 Descending Salt Lake Center
11:47AM 43.2403 -115.2811 296° West 353 406 13,100 -1,500 Descending Salt Lake Center
11:48AM 43.2758 -115.3881 295° West 297 342 12,100 -1,020 Descending Salt Lake Center
11:49AM 43.3106 -115.4881 296° West 281 323 11,000 -1,080 Descending Salt Lake Center
11:50AM 43.3456 -115.5872 296° West 277 319 9,900 -1,020 Descending Salt Lake Center
11:51AM 43.3800 -115.6889 295° West 281 323 9,000 -600 Descending Salt Lake Center
11:52AM 43.4125 -115.7817 296° West 259 298 8,700 -780 Descending Salt Lake Center
11:53AM 43.4436 -115.8725 295° West 252 290 7,400 -1,200 Descending Salt Lake Center
11:54AM 43.4731 -115.9581 295° West 257 296 6,300 -720 Descending Salt Lake Center
11:55AM 43.4997 -116.0339 296° West 210 242 6,000 -720 Descending Salt Lake Center
11:56AM 43.5208 -116.0950 295° West 174 200 4,900 -1,020 Descending Salt Lake Center
11:57AM 43.5356 -116.1394 295° West 130 150 3,900 -600 Descending Salt Lake Center
11:58AM 43.5508 -116.1858 294° West 124 143 3,700 -240 Descending Salt Lake Center
12:00PM 43.5500 -116.2167 270° West  Level FlightAware Approximate
12:07PM 43.5644 -116.2229 270° West  Level Estimated
12:08PM 43.5644 -116.2229 270° West  Level Estimated